Location: Natural Bridges National Monument
(37.6093°N, 109.9767°W)
Time: 04:45:14
(UTC-06:00)

Daily predictions for brighter satellites

Satellite Brightness Start Highest point End
(mag) Time Altitude Azimuth Time Altitude Azimuth Time Altitude Azimuth
Cosmos 2278 4.2 00:00:36 10° NNW 00:05:47 52° W 00:05:47 52° W
Cosmos 2082 Rocket 2.6 00:06:39 54° W 00:07:14 57° WNW 00:12:50 10° NNE
SeaSat 1 3.4 00:09:31 39° NE 00:09:31 39° NE 00:13:39 10° N
Cosmos 1953 4.4 00:08:50 10° N 00:10:40 23° NNE 00:10:40 23° NNE
CZ-2C R/B 3.4 00:22:13 10° NNE 00:26:29 47° NE 00:26:29 47° NE
USA 229 DEB 4.1 00:25:03 10° NNW 00:32:08 59° NE 00:33:13 54° E
USA 229 4.1 00:25:09 10° NNW 00:32:14 59° NE 00:33:20 53° E
Nadezhda 3 Rocket 4.0 00:32:43 73° W 00:32:43 73° W 00:39:04 10° N
Meteor 2-8 Rocket 4.4 00:34:25 78° NNW 00:34:25 78° NNW 00:40:14 10° N
SL-16 R/B 3.7 00:30:47 10° N 00:35:34 27° ENE 00:36:00 27° ENE
USA 234 4.3 00:32:58 24° E 00:36:18 40° NNE 00:42:17 10° NNW
Cosmos 1697 Rocket 3.3 00:31:13 10° NNW 00:35:40 51° WNW 00:35:40 51° WNW
Cosmos 2239 Rocket 4.5 00:42:27 10° N 00:48:05 76° N 00:48:05 76° N
Terra 4.4 00:50:38 11° W 00:50:38 11° W 00:51:20 10° WNW
Cosmos 1833 Rocket 4.4 00:51:47 23° W 00:53:20 26° WNW 00:57:59 10° N
Lacrosse 5 4.3 00:57:21 14° ENE 00:57:21 14° ENE 00:58:04 10° ENE
Cosmos 1821 Rocket 4.0 00:48:37 10° N 00:54:24 75° NW 00:54:24 75° NW
Cosmos 1727 Rocket 4.5 01:02:32 49° ENE 01:02:32 49° ENE 01:07:49 10° NNE
Cosmos 2251 Rocket 4.3 01:09:45 47° NNE 01:09:45 47° NNE 01:13:36 10° NNE
ALOS 2 4.4 01:15:08 27° NNW 01:15:08 27° NNW 01:17:18 10° NNW
Cosmos 1605 Rocket 4.1 01:11:13 10° N 01:16:39 70° NNE 01:16:39 70° NNE
Cosmos 2360 Rocket 3.8 01:17:12 10° N 01:21:52 26° ENE 01:23:00 24° ENE
Cosmos 1980 Rocket 3.4 01:17:48 10° NW 01:21:21 32° WNW 01:21:21 32° WNW
Meteor 1-24 Rocket 4.4 01:26:18 52° ENE 01:26:18 52° ENE 01:31:20 10° NNE
Cosmos 2322 Rocket 2.6 01:25:29 10° NNW 01:30:12 60° N 01:30:12 60° N
NOSS 3-1 (C) 3.9 01:51:43 10° NW 01:59:29 85° WSW 02:00:34 71° SSE
Meteor 2-1 Rocket 4.4 01:55:01 10° N 02:00:24 73° NNE 02:00:24 73° NNE
Cosmos 1802 Rocket 4.2 01:58:07 10° N 02:04:22 62° E 02:04:31 62° E
ATLAS 3B CENTAUR R/B 4.3 01:42:05 10° WSW 02:05:23 46° SSE 02:13:04 10° ESE
Cosmos 1459 Rocket 4.0 01:58:14 10° N 02:04:36 75° E 02:04:37 75° E
ATLAS CENTAUR R/B 4.0 02:03:49 10° NNW 02:04:14 13° NNW 02:04:14 13° NNW
Cosmos 2100 Rocket 3.9 02:08:22 10° N 02:14:14 81° NW 02:14:14 81° NW
H-2A R/B 4.0 02:11:16 10° N 02:13:44 34° N 02:13:44 34° N
Cosmos 2061 Rocket 3.9 02:12:01 10° N 02:18:12 86° ENE 02:18:12 86° ENE
Lacrosse 5 rocket 2.8 02:13:59 10° NNW 02:18:04 39° NNE 02:18:04 39° NNE
USA 234 3.5 02:20:16 53° W 02:20:16 53° W 02:25:33 10° NW
SL-16 R/B 3.4 02:14:30 10° NW 02:17:50 31° WNW 02:17:50 31° WNW
Cosmos 2016 Rocket 4.0 02:14:14 10° N 02:20:38 71° E 02:21:05 68° ESE
ATLAS 2AS CENTAUR R/B 4.4 02:22:44 10° NNW 02:29:58 35° NE 02:36:43 10° ESE
NOSS 3-1 (A) 4.0 02:22:19 10° NW 02:30:06 74° WSW 02:31:27 63° S
Cosmos 2221 4.0 02:29:50 10° NNW 02:32:14 32° NNW 02:32:14 32° NNW
Cosmos 2227 Rocket 4.1 02:35:24 18° ESE 02:36:16 19° E 02:40:04 10° ENE
Lacrosse 5 2.7 02:36:31 42° NW 02:36:31 42° NW 02:41:20 10° NNE
Helios 1A Rocket 4.1 02:33:29 10° NNE 02:36:15 41° NNE 02:36:15 41° NNE
Cosmos 2237 4.4 02:33:25 10° NNW 02:39:06 67° ENE 02:39:40 63° E
NPP 4.3 02:34:58 10° NNE 02:40:08 45° E 02:40:18 45° ESE
Cosmos 2322 3.7 02:34:34 10° NNW 02:39:48 76° NW 02:39:48 76° NW
Cosmos 2123 Rocket 3.8 02:41:09 78° SSE 02:41:35 84° E 02:47:48 10° N
Cosmos 407 Rocket 3.9 02:44:12 55° E 02:44:12 55° E 02:48:58 10° NNE
Cosmos 1726 4.0 02:42:11 10° NNE 02:44:41 29° NE 02:44:41 29° NE
Cosmos 2228 Rocket 4.1 02:46:07 10° N 02:50:20 39° E 02:50:27 39° E
ADEOS Rocket 4.4 02:44:00 10° NNE 02:50:54 40° E 02:54:18 27° SE
COSMOS 2428 3.0 02:46:47 10° NNW 02:52:30 64° ENE 02:53:57 48° ESE
Cosmos 2219 3.0 02:52:43 87° SE 02:52:46 87° ESE 02:58:25 10° NNE
Cosmos 1190 Rocket 3.9 02:58:46 88° NNE 02:58:46 88° NNE 03:04:04 10° NNE
Cosmos 1242 Rocket 4.4 02:56:13 10° N 02:58:09 30° N 02:58:09 30° N
Cosmos 2233 Rocket 4.2 02:57:50 10° N 03:04:09 67° E 03:06:14 43° SSE
Cosmos 2333 4.3 02:58:35 10° NNW 03:04:20 72° ENE 03:05:55 48° SE
Cosmos 1992 Rocket 4.4 02:59:22 10° NNW 03:03:31 49° WNW 03:03:31 49° WNW
Cosmos 1328 Rocket 3.9 03:00:06 10° N 03:04:18 61° ENE 03:04:18 61° ENE
Cosmos 2360 Rocket 3.0 03:00:42 10° NW 03:04:43 37° WNW 03:04:43 37° WNW
Cosmos 1356 Rocket 4.3 03:11:22 41° NNW 03:11:22 41° NNW 03:14:15 10° N
SL-08 R/B 3.4 03:10:17 66° SE 03:10:49 74° ENE 03:15:47 10° N
Cosmos 1725 Rocket 4.0 03:05:52 10° NNW 03:12:08 65° W 03:12:57 59° SW
SL-14 R/B 3.7 03:18:40 62° N 03:18:40 62° N 03:22:06 10° N
Cosmos 2151 3.4 03:20:03 53° E 03:20:08 53° E 03:24:14 10° NNE
Cosmos 1151 Rocket 3.7 03:17:48 10° N 03:22:01 50° E 03:22:47 44° ESE
Meteor 2-10 4.0 03:19:32 10° N 03:24:39 75° E 03:25:58 50° SSE
AQUA 3.6 03:20:59 10° N 03:25:45 80° WNW 03:26:02 76° WSW
Cosmos 2333 Rocket 2.8 03:20:20 10° NNW 03:25:58 56° ENE 03:31:07 12° SE
Resurs 1-4 Rocket 2.6 03:20:57 10° NNE 03:26:08 52° E 03:27:46 38° SSE
IRS-1D 4.1 03:21:55 10° NNE 03:27:10 54° E 03:28:48 39° SSE
CZ-2D R/B 2.5 03:25:27 10° NNE 03:30:34 56° E 03:32:11 40° SSE
UNK 4.1 03:33:15 36° SE 03:34:57 61° ENE 03:39:30 10° N
SL-8 R/B 3.9 03:37:46 51° W 03:38:41 62° NNW 03:43:27 10° NE
ERBS 2.9 03:40:41 55° NNE 03:40:41 55° NNE 03:43:27 10° NE
ADEOS 3.8 03:35:50 10° NNE 03:41:02 66° ESE 03:42:52 40° S
SL-16 R/B 2.5 03:37:30 24° SSE 03:41:26 81° ENE 03:47:37 10° NNW
Cosmos 2297 Rocket 2.6 03:40:46 36° SSE 03:42:50 57° ESE 03:48:22 10° NNE
Cosmos 1500 Rocket 3.6 03:44:31 58° W 03:44:40 59° W 03:49:02 10° N
Cosmos 1980 4.1 03:39:22 10° NNW 03:45:01 61° ENE 03:50:38 10° SE
IRS-1C 4.3 03:43:14 10° N 03:48:28 58° WNW 03:49:47 45° WSW
Cosmos 1356 4.4 03:49:32 37° ESE 03:50:08 40° E 03:53:28 10° NNE
Cosmos 1626 2.1 03:49:54 69° SE 03:50:12 74° E 03:53:56 10° N
Cosmos 2219 Rocket 2.1 03:46:57 10° NNW 03:52:37 70° WSW 03:55:32 29° S
Aureole 2 Rocket 3.5 03:49:21 10° N 03:53:15 52° ENE 03:56:29 15° SE
GPS 2-04 Rocket1 2.7 03:54:10 67° S 03:54:17 67° S 03:58:31 10° E
COBE Rocket 3.6 03:49:38 10° N 03:54:19 81° WNW 03:55:32 49° SSW
BREEZE-M DEB 2.8 03:55:06 48° WSW 03:56:15 87° NW 03:58:51 10° NE
Cosmos 1850 Rocket 4.2 03:54:09 35° S 03:56:16 66° ESE 04:01:26 10° NNE
Lacrosse 5 rocket 4.0 03:53:37 10° WNW 03:53:40 10° WNW 03:53:40 10° WNW
Cosmos 1805 Rocket 4.2 03:56:02 29° SSE 03:58:04 53° E 04:02:23 10° NNE
Okean O Rocket 4.4 03:57:28 10° ENE 03:58:36 11° E 03:59:45 10° ESE
Cosmos 1741 Rocket 4.2 03:57:43 33° S 04:00:03 69° ESE 04:05:22 10° NNE
NOSS 0 Rocket 3.8 03:54:50 10° NNW 04:01:04 79° WSW 04:07:15 10° SSE
Cosmos 1140 Rocket 3.6 04:00:48 41° SW 04:02:25 62° WNW 04:07:36 10° N
SL-16 R/B 3.9 03:57:36 10° N 04:02:43 33° ENE 04:07:48 10° SE
Cosmos 1300 4.3 04:00:11 10° NNW 04:02:23 23° WNW 04:02:23 23° WNW
Cosmos 2237 Rocket 2.2 03:59:23 10° NNW 04:05:03 83° ENE 04:10:40 10° SSE
Cosmos 1515 Rocket 4.3 04:01:41 10° NNW 04:05:43 35° W 04:05:45 35° W
Cosmos 614 Rocket 4.0 04:08:43 37° SW 04:10:41 65° WNW 04:15:54 10° NNE
Cosmos 1570 Rocket 4.5 04:07:50 10° NNW 04:13:10 63° ENE 04:18:27 10° SSE
ISS -0.9 04:11:40 10° NNW 04:14:08 19° NNE 04:16:33 10° ENE
USA 161 3.5 04:13:32 15° ESE 04:14:21 18° ENE 04:15:53 10° NNE
NOSS 2-1 (D) 3.7 04:17:05 37° W 04:18:07 49° NW 04:22:10 10° NNE
NOSS 2-1 (C) 3.7 04:17:15 38° WSW 04:18:17 50° NW 04:22:19 10° NNE
Cosmos 2227 Rocket 2.5 04:17:14 30° SW 04:19:48 54° WNW 04:25:22 10° NNE
Lacrosse 5 4.4 04:18:45 10° NW 04:20:45 12° NNW 04:22:44 10° N
ATLAS 2AS CENTAUR R/B 3.0 04:13:38 10° NW 04:21:20 57° WSW 04:28:24 10° SSE
ARIANE 5 R/B 2.9 04:17:17 10° N 04:22:11 48° WNW 04:24:24 29° SW
Cosmos 2034 Rocket 4.0 04:19:44 10° N 04:26:06 86° W 04:32:29 10° S
Cosmos 2058 4.0 04:27:07 25° W 04:27:48 26° WNW 04:31:17 10° NNW
Cosmos 1633 Rocket 3.4 04:25:57 16° S 04:29:19 65° E 04:33:39 10° NNE
Cosmos 1869 3.8 04:26:28 10° N 04:30:28 61° E 04:34:26 10° SSE
COSMOS 2428 4.3 04:32:51 10° WNW 04:35:54 16° W 04:35:54 16° W
USA 215 4.4 04:30:22 10° ENE 04:36:09 33° SE 04:41:54 10° S
ADEOS Rocket 4.1 04:29:28 10° N 04:36:13 41° WNW 04:41:15 19° SW
Tsikada Rocket 4.0 04:30:57 14° S 04:36:28 85° W 04:42:54 10° N
Sich 1 3.0 04:33:29 20° S 04:36:32 85° W 04:40:57 10° N
SL-24 R/B 3.9 04:35:53 10° NNE 04:39:53 72° E 04:42:48 16° S
NOSS 2-1 (E) 4.4 04:39:20 21° W 04:41:09 32° NW 04:45:01 10° NNE
DELTA 2 R/B (1) 3.6 04:42:52 21° SW 04:46:35 67° SSE 04:52:05 10° ENE
Cosmos 2082 4.5 04:43:59 20° WSW 04:47:20 37° WNW 04:52:33 10° N
Cosmos 1455 2.9 04:43:48 10° NNW 04:47:23 36° W 04:49:23 21° SW
Cosmos 2242 Rocket 4.2 04:44:00 10° N 04:48:25 59° E 04:52:52 10° SSE
ATLAS 3B CENTAUR R/B 3.2 04:39:34 11° WSW 04:49:31 37° SSW 04:53:51 10° SE
PSLV R/B 4.5 04:46:52 10° NNE 04:50:52 54° E 04:54:43 10° S
Lacrosse 4 Rocket 1.8 04:49:17 14° S 04:52:41 59° ESE 04:56:48 10° NE
CZ-2D R/B 4.0 04:49:28 10° N 04:53:15 41° WNW 04:55:51 18° SW
OAO 3 Copernicus 4.4 04:49:45 13° W 04:54:10 60° S 04:59:09 10° ESE
Cosmos 2208 Rocket 4.1 04:51:27 10° NNW 04:56:31 56° WSW 05:01:37 10° S
MOZ.5/SAFIR/RUBIN 5/SL-8 4.2 04:53:56 10° S 04:58:25 42° W 05:02:56 10° NNW
Landsat 4 3.8 04:57:40 10° SSE 05:01:26 79° ENE 05:05:15 10° N
PSLV R/B 4.4 04:59:32 10° NNE 05:03:39 48° E 05:07:42 10° S
UNKNOWN OBJECT B 4.2 05:01:49 10° NNW 05:05:08 25° WNW 05:07:35 14° WSW
Resurs 1-4 Rocket 3.7 05:01:55 10° NNW 05:05:32 19° WNW 05:08:51 11° WSW
Cosmos 1707 Rocket 4.2 05:02:08 10° NNW 05:06:08 37° W 05:10:10 10° SSW
Cosmos 2333 Rocket 3.6 05:05:58 10° WNW 05:09:41 18° W 05:12:58 11° SW
CZ-2D R/B 3.8 05:06:54 10° NNW 05:10:10 17° WNW 05:13:26 10° WSW
Cosmos 1933 3.6 05:11:23 10° N 05:15:28 73° E 05:19:32 10° SSE
MOS 1 Rocket 4.5 05:14:13 10° N 05:18:40 31° WNW 05:23:16 10° SW
Cosmos 468 Rocket 3.9 05:15:52 10° NNW 05:21:04 75° WSW 05:26:11 10° S
ADEOS II 2.1 05:16:15 10° N 05:21:32 82° WNW 05:26:47 10° SSW
Cosmos 1862 Rocket 3.5 05:20:04 10° N 05:24:25 86° W 05:28:44 10° S
SL-16 R/B 4.2 05:22:53 10° WSW 05:25:41 13° W 05:28:28 10° WNW
Cosmos 2297 Rocket 3.8 05:23:10 10° WSW 05:27:15 20° NW 05:31:21 10° N
Cosmos 1933 Rocket 3.7 05:24:01 10° SSW 05:28:24 60° W 05:32:50 10° N
Cosmos 371 Rocket 3.7 05:24:34 10° NNW 05:29:23 70° ENE 05:34:10 10° SSE
IRS-1C Rocket 4.1 05:26:26 10° NNE 05:31:44 86° WNW 05:37:01 10° SSW
GPS 2-04 Rocket1 3.1 05:29:54 10° W 05:34:00 52° SSW 05:38:12 10° ESE
Okean O Rocket 1.8 05:31:02 10° N 05:35:19 57° WNW 05:39:33 10° SSW
CZ-2C R/B 4.1 05:31:14 10° SSE 05:35:48 73° ENE 05:40:29 10° N
Meteor 2-10 Rocket 3.4 05:30:48 10° N 05:35:49 83° W 05:40:50 10° S
Cosmos 1634 Rocket 4.1 05:30:24 10° NNW 05:36:29 60° W 05:42:31 10° S
Meteor 2-3 Rocket 4.1 05:31:35 10° S 05:37:11 71° E 05:42:53 10° NNE
